Tracking 19636 objects as of 24-May-2019
HD Live streaming from Space Station
objects crossing your sky now

SL-16 R/B

Track SL-16 R/B now!
10-day predictions
SL-16 R/B is classified as:


NORAD ID: 20625
Int'l Code: 1990-046B
Perigee: 841.9 km
Apogee: 859.4 km
Inclination: 71.0 °
Period: 101.8 minutes
Semi major axis: 7221 km
RCS: 14.0306 m2 (large)
Launch date: May 22, 1990
Source: Commonwealth of Independent States (former USSR) (CIS)
Launch site: TYURATAM MISSILE AND SPACE COMPLEX (TTMTR)

Note: This is a ROCKET BODY
aabbcc
Your satellite tracking list
Your tracking list is empty




NASA's NSSDC Master Catalog

Two Line Element Set (TLE):
1 20625U 90046B   19143.47894356 -.00000273  00000-0 -11707-3 0  9991
2 20625  70.9983 108.8326 0012067 120.8614 239.3697 14.14644156497576
Source of the keplerian elements: AFSPC